Wind_Speed
52 52 52 52 52 52 53 54 54 54 53 53 54 55 56 56 56 56 56 56 55 54 54 54 53 53 53 52 51 51 51 52 52 52 52 52 53 53
53 53 54 54 53 53 54 55 55 55 54 53 54 55 56 57 57 57 57 57 57 56 56 56 55 54 54 53 53 53 53 53 54 54 53 53 54 54
55 55 54 55 55 55 55 55 55 55 55 54 54 55 57 58 58 58 58 58 58 57 57 58 57 57 56 56 55 55 55 55 55 55 55 55 55 56
55 56 56 56 56 56 56 56 55 56 56 56 55 56 57 58 59 59 59 59 59 59 59 59 58 58 58 58 57 57 56 57 57 57 56 57 57 57
57 57 57 57 56 56 55 55 55 56 56 56 56 56 57 58 60 60 60 60 60 60 59 59 59 59 59 59 59 58 58 58 59 58 58 58 58 58
57 57 57 57 57 57 57 57 57 57 57 57 57 57 58 58 59 59 60 60 60 61 60 60 60 60 60 60 60 60 60 60 60 60 60 59 59 60
58 57 57 57 58 58 58 59 59 58 57 57 57 57 58 58 58 59 60 60 61 61 61 61 62 62 62 62 61 61 61 61 61 61 61 61 60 61
57 57 57 57 57 58 58 59 59 59 59 58 58 58 57 57 57 58 59 60 61 61 62 62 63 63 63 62 61 61 61 61 61 61 61 61 61 60
57 57 58 57 57 58 58 59 59 60 60 59 59 58 58 58 58 58 59 60 60 61 62 62 63 63 63 62 62 62 62 62 62 61 61 61 60 60
55 56 58 58 59 58 58 59 59 60 60 60 60 59 59 59 59 59 59 60 61 61 62 61 61 62 62 62 62 61 61 61 61 61 60 60 61 61
55 56 57 57 58 59 59 59 59 60 60 60 60 60 60 60 60 60 59 60 60 61 62 62 61 62 62 61 61 60 60 60 60 59 59 60 60 60
54 55 55 56 56 57 58 59 59 59 60 60 60 60 60 61 61 61 60 60 60 60 61 61 61 61 60 59 59 59 58 58 58 58 57 58 58 58
53 53 54 55 55 56 57 58 58 59 59 59 59 59 59 60 60 59 59 59 59 59 59 60 60 59 59 57 57 57 57 57 56 56 55 55 55 55
51 52 52 53 54 55 56 57 57 58 58 59 58 58 59 58 58 58 58 58 57 57 57 58 58 57 57 56 55 55 55 55 55 54 54 53 52 53
51 51 52 52 53 54 54 55 56 57 57 57 57 57 57 57 58 57 57 57 56 56 56 56 56 55 55 54 53 53 53 53 53 52 52 52 52 52
49 50 50 51 51 52 53 54 55 55 56 56 56 56 56 56 56 56 55 55 55 54 54 54 53 53 52 52 52 51 51 51 51 51 51 51 51 51
49 49 49 50 50 50 51 52 53 54 54 55 55 55 55 54 54 54 53 53 53 52 51 51 51 51 51 50 50 50 51 51 50 50 50 50 49 49
48 48 48 49 49 49 49 50 52 52 52 53 53 53 53 52 52 52 51 51 50 50 50 50 50 49 49 48 48 48 49 48 48 48 48 48 47 46
47 46 47 48 48 48 49 49 50 50 50 50 50 51 51 50 50 50 50 49 49 49 49 49 49 48 47 47 46 47 47 46 46 46 46 45 45 44
45 45 45 46 47 47 47 47 47 47 47 47 48 48 48 48 48 49 48 48 48 48 47 47 47 46 45 45 44 44 45 45 45 44 44 43 43 43
44 44 44 44 44 44 44 44 44 44 44 45 45 45 45 46 46 46 45 46 46 45 45 45 44 44 44 43 43 42 42 43 43 43 42 42 42 42
43 42 43 43 43 43 42 42 42 42 42 43 44 44 44 43 44 44 44 44 44 43 43 44 43 43 43 42 42 42 41 41 41 41 41 41 41 41
42 41 41 41 41 41 42 42 42 41 41 41 42 42 42 42 43 43 43 42 42 42 42 42 43 42 42 41 41 41 40 40 40 40 40 40 41 40
Wind_Direction
257 258 258 259 260 260 260 260 260 259 259 259 259 258 258 258 259 259 260 260 261 261 262 263 264 265 266 266 266 267 267 268 269 270 271 271 271 271
258 258 259 259 260 260 260 260 260 260 259 259 260 259 258 258 259 260 260 261 261 261 261 262 263 264 265 266 266 266 267 268 269 270 271 271 271 272
258 259 259 260 259 259 260 259 259 260 260 260 260 260 259 259 259 260 261 261 261 261 261 261 263 264 264 265 266 266 267 268 269 269 270 271 272 272
259 259 259 260 259 260 260 259 259 260 260 259 259 260 260 259 259 260 260 261 260 261 261 262 262 264 265 266 266 266 267 268 269 269 270 271 272 273
259 260 260 259 259 259 260 260 259 260 260 260 260 260 261 260 260 260 260 260 260 260 261 262 263 264 265 266 267 267 267 268 269 270 271 271 273 274
258 258 259 259 259 259 259 259 259 259 260 260 260 260 261 261 261 260 260 260 260 260 261 262 263 264 266 267 268 268 268 268 268 270 271 272 273 274
258 258 259 259 259 259 259 259 259 259 260 260 261 261 262 262 262 262 261 261 261 262 262 263 263 264 266 267 267 268 268 268 269 270 271 272 273 274
258 258 258 258 259 259 259 259 260 260 260 261 261 262 263 263 263 262 262 262 262 262 263 264 264 265 266 267 267 268 268 269 269 270 271 271 273 273
257 257 257 258 258 258 259 259 260 260 260 261 262 262 263 263 263 263 264 263 264 264 264 264 265 266 266 267 268 268 269 269 269 270 270 271 272 273
258 258 257 257 257 258 258 258 259 260 260 261 261 262 262 262 263 264 265 265 265 264 265 265 266 266 267 267 268 268 269 269 269 269 270 270 271 272
259 259 259 259 258 258 258 259 259 260 260 261 262 261 261 262 263 265 265 265 265 265 266 266 266 267 267 267 267 268 268 268 269 269 269 270 271 272
260 260 261 260 259 259 258 258 258 258 258 260 260 261 261 262 263 264 264 265 265 265 265 266 267 267 266 266 266 267 267 267 268 269 269 270 271 272
262 261 261 260 260 259 258 257 257 258 258 259 260 261 261 262 262 263 264 265 264 265 266 266 266 266 265 265 265 266 266 266 267 268 269 270 270 271
263 262 262 261 261 260 259 258 258 258 259 259 259 259 260 261 262 262 263 264 265 265 265 265 265 265 265 265 264 265 265 265 266 267 268 269 270 270
263 263 263 263 262 261 261 260 259 259 259 259 259 259 259 260 261 262 262 263 264 264 264 265 265 265 265 264 264 265 265 265 265 266 268 269 269 269
263 263 263 263 263 262 261 261 260 260 260 259 259 259 259 260 261 261 261 262 262 263 264 264 264 264 265 264 264 264 263 263 264 266 267 268 269 270
263 264 264 263 263 263 262 262 260 261 261 260 260 259 259 260 260 260 260 261 261 262 263 264 264 264 264 264 263 263 262 263 264 266 267 268 269 271
263 263 263 263 263 263 263 263 262 261 261 261 260 259 259 259 259 258 259 260 260 261 262 263 263 263 263 264 263 263 263 263 264 265 266 267 268 270
263 263 263 264 264 264 264 263 262 261 261 259 259 258 257 257 258 257 257 258 259 260 261 262 262 262 263 264 264 264 263 262 262 264 265 266 268 269
263 263 264 265 265 265 264 263 261 259 259 257 257 257 257 257 257 256 256 258 258 259 260 261 262 262 262 263 262 263 263 262 262 263 264 266 267 269
264 264 263 264 265 264 264 262 260 258 257 256 256 256 256 256 255 255 256 257 258 258 259 261 261 261 261 262 262 261 262 262 263 264 264 265 266 268
265 264 263 263 263 262 261 260 259 257 256 255 254 254 254 255 254 254 256 257 258 258 259 259 259 260 260 261 260 260 260 261 262 264 264 265 266 266
266 265 265 264 262 261 260 259 257 256 255 255 254 254 254 254 254 255 256 256 257 258 258 258 258 258 258 259 259 260 259 260 261 263 265 266 267 267
Height
5631 5634 5636 5638 5641 5643 5645 5647 5650 5653 5656 5659 5661 5662 5664 5667 5669 5672 5674 5676 5679 5681 5682 5684 5686 5688 5689 5691 5692 5693 5694 5695 5695 5696 5697 5697 5697 5697
5616 5619 5621 5624 5626 5628 5630 5632 5635 5637 5640 5644 5646 5647 5649 5651 5653 5656 5658 5660 5663 5665 5667 5669 5671 5672 5674 5676 5677 5678 5679 5680 5681 5681 5682 5682 5683 5683
5601 5603 5606 5608 5610 5612 5614 5617 5619 5622 5625 5628 5630 5632 5633 5635 5638 5640 5642 5645 5647 5649 5651 5653 5655 5657 5659 5661 5662 5663 5664 5665 5666 5666 5667 5667 5667 5667
5585 5587 5590 5592 5594 5596 5598 5601 5603 5606 5608 5611 5614 5616 5618 5620 5622 5624 5626 5628 5631 5633 5635 5637 5639 5641 5643 5644 5646 5648 5649 5650 5651 5651 5652 5652 5652 5651
5569 5571 5573 5575 5578 5580 5582 5584 5587 5589 5592 5594 5597 5600 5601 5603 5605 5607 5609 5612 5614 5617 5619 5621 5623 5624 5626 5628 5629 5631 5633 5634 5635 5635 5635 5635 5635 5635
5552 5554 5557 5559 5561 5563 5566 5568 5570 5573 5575 5577 5580 5583 5585 5586 5588 5591 5593 5595 5598 5600 5602 5604 5606 5608 5610 5612 5614 5615 5616 5617 5617 5618 5618 5618 5619 5618
5535 5538 5540 5542 5544 5546 5549 5551 5553 5556 5558 5561 5563 5566 5568 5570 5572 5574 5576 5578 5581 5583 5585 5588 5590 5592 5593 5594 5596 5597 5598 5599 5600 5601 5601 5601 5601 5601
5518 5520 5523 5525 5527 5529 5532 5534 5537 5539 5542 5545 5547 5550 5552 5554 5555 5557 5559 5561 5565 5568 5569 5570 5572 5574 5576 5577 5578 5579 5580 5581 5582 5583 5583 5583 5583 5583
5500 5503 5505 5507 5509 5512 5514 5517 5519 5522 5525 5528 5531 5533 5536 5538 5539 5541 5542 5544 5547 5549 5550 5553 5554 5556 5558 5559 5560 5561 5562 5563 5564 5565 5565 5566 5565 5565
5483 5485 5487 5490 5492 5494 5497 5500 5502 5505 5508 5511 5514 5517 5518 5519 5521 5523 5524 5526 5529 5530 5532 5535 5537 5538 5540 5541 5542 5543 5544 5545 5546 5547 5548 5548 5548 5547
5467 5468 5470 5472 5475 5477 5480 5483 5485 5487 5489 5492 5495 5498 5500 5502 5503 5505 5507 5509 5511 5513 5514 5516 5519 5520 5522 5523 5524 5525 5526 5527 5528 5529 5530 5530 5530 5529
5451 5452 5454 5455 5457 5459 5461 5464 5467 5470 5472 5475 5477 5479 5481 5484 5485 5488 5490 5492 5494 5496 5498 5499 5501 5501 5504 5506 5506 5507 5508 5509 5510 5512 5513 5513 5513 5512
5434 5436 5438 5439 5440 5442 5444 5447 5450 5452 5454 5457 5459 5462 5464 5466 5468 5470 5472 5474 5477 5479 5481 5481 5483 5483 5485 5489 5490 5490 5491 5492 5494 5495 5496 5496 5496 5496
5419 5420 5422 5422 5424 5425 5427 5429 5432 5434 5436 5439 5442 5445 5447 5449 5451 5453 5455 5457 5459 5462 5463 5464 5465 5466 5468 5470 5472 5474 5474 5476 5477 5479 5480 5480 5480 5480
5403 5404 5406 5407 5408 5409 5411 5412 5414 5417 5419 5422 5425 5428 5430 5433 5434 5436 5438 5440 5442 5444 5445 5447 5448 5450 5451 5453 5455 5457 5459 5460 5461 5463 5464 5465 5465 5465
5387 5388 5390 5391 5392 5393 5394 5396 5397 5400 5402 5405 5408 5411 5413 5416 5418 5420 5422 5424 5426 5428 5429 5431 5432 5434 5436 5437 5439 5441 5443 5445 5447 5447 5448 5449 5450 5450
5372 5373 5374 5375 5376 5378 5379 5380 5382 5383 5385 5388 5391 5394 5397 5399 5402 5404 5406 5408 5411 5413 5415 5416 5417 5418 5420 5422 5424 5427 5429 5430 5432 5433 5434 5435 5436 5436
5356 5358 5359 5360 5362 5363 5364 5365 5366 5368 5370 5372 5374 5377 5380 5383 5386 5388 5391 5393 5396 5398 5400 5401 5402 5404 5406 5408 5411 5412 5414 5416 5417 5418 5420 5421 5423 5423
5341 5343 5344 5345 5346 5347 5349 5350 5351 5353 5355 5357 5359 5362 5365 5368 5371 5374 5376 5379 5381 5383 5385 5387 5388 5390 5392 5395 5397 5398 5400 5402 5403 5405 5407 5408 5410 5410
5327 5328 5329 5330 5331 5333 5334 5334 5336 5338 5340 5342 5345 5347 5350 5353 5356 5359 5362 5365 5367 5369 5371 5373 5375 5377 5379 5381 5383 5385 5386 5388 5390 5392 5394 5395 5397 5397
5313 5314 5315 5316 5317 5318 5319 5320 5322 5324 5326 5328 5331 5334 5337 5339 5342 5345 5348 5351 5353 5356 5358 5360 5362 5363 5365 5367 5370 5373 5374 5375 5377 5379 5381 5383 5384 5385
5298 5299 5300 5302 5303 5304 5305 5307 5309 5311 5313 5315 5318 5321 5323 5326 5329 5332 5335 5338 5340 5342 5345 5347 5349 5350 5352 5355 5357 5360 5362 5363 5365 5366 5368 5370 5371 5373
5284 5285 5286 5288 5289 5290 5292 5294 5295 5298 5300 5303 5305 5308 5311 5314 5317 5319 5322 5324 5327 5329 5331 5334 5336 5338 5340 5342 5345 5347 5349 5351 5353 5354 5356 5357 5359 5360